User: anonymous   Login
Location: Unspecified
(0.0000°N, 0.0000°E)
Time: 22:16:28
(UTC+00:00)
Language:

STARLINK-35008 - Orbit

View from above orbital plane
View from above orbital plane
View from above satellite
View from above satellite

Ground track
Ground track

The orbit is defined by the following mean orbital elements,

1 65408U          26145.23539218 +.00000000 +00000-0 +46149-3 0 00004
2 65408  53.1584 236.8086 0001259  91.3520 268.7625 15.30209339    02
Epoch (UTC): 25 May 2026 05:38:57
Eccentricity: 0.0001259
inclination: 53.1584°
perigee height: 474 km
apogee height: 476 km
right ascension of ascending node: 236.8086°
argument of perigee: 91.3520°
revolutions per day: 15.30209339
mean anomaly at epoch: 268.7625°

The dashed part of the orbit path shows where the satellite is in the earth's shadow,  

DLR